, LA

(GMT )
East Cameron 278

Weather History for KEHC - April, 2014

Change the Weather History Date:

Friday, April 4, 2014

  Actual Average Record
Temperature  
Mean Temperature 73 °F -  
Max Temperature 78 °F - - ()
Min Temperature 68 °F - - ()
Cooling Degree Days 8    
Growing Degree Days 23 (Base 50)    
Moisture  
Dew Point 69 °F    
Average Humidity 90    
Maximum Humidity 100    
Minimum Humidity 74    
Precipitation  
Precipitation 0.00 in - - ()
Sea Level Pressure  
Sea Level Pressure 29.91 in    
Wind  
Wind Speed 14 mph (East)    
Max Wind Speed 21 mph    
Max Gust Speed 20 mph    
Visibility 5 miles    
Events      
T = Trace of Precipitation, MM = Missing Value Source: NWS Daily Summary

Daily Weather History Graph

Daily Weather History Graph

Search for Another Location

Airport or City:

Trip Planner

Search our weather history database for the weather conditions in past years. The results will help you decide how hot, cold, wet, or windy it might be!

Date:

Astronomy

Apr. 04, 2014 Rise Set
Actual Time 6:58 AM CDT 7:31 PM CDT
Civil Twilight 6:34 AM CDT 7:54 PM CDT
Nautical Twilight 6:06 AM CDT 8:22 PM CDT
Astronomical Twilight 5:38 AM CDT 8:51 PM CDT
Moon 10:32 AM CDT (4/4) No Moon Set
Length of Visible Light 13h 20m
Length of Day
12h 33m
Waxing Crescent, 25% of the Moon is Illuminated
Apr 4
Waxing Crescent
Apr 7
First Quarter
Apr 15
Full
Apr 22
Last Quarter
Apr 29
New

Hourly Weather History & Observations

Time (CDT) Temp. Dew Point Humidity Pressure Visibility Wind Dir Wind Speed Gust Speed Precip Events Conditions
12:15 AM 71.6 °F 69.8 °F 94% 29.84 in 4.0 mi SSE 20.7 mph - N/A   Mist
12:35 AM 71.6 °F 69.8 °F 94% 29.85 in 4.0 mi SSE 18.4 mph - N/A   Mist
12:55 AM 71.6 °F 69.8 °F 94% 29.85 in 4.0 mi SSE 17.3 mph - N/A   Mist
1:15 AM 71.6 °F 69.8 °F 94% 29.84 in 4.0 mi SSE 18.4 mph - N/A   Mist
1:35 AM 71.6 °F 69.8 °F 94% 29.84 in 4.0 mi SSE 16.1 mph - N/A   Mist
1:55 AM 71.6 °F 69.8 °F 94% 29.82 in 4.0 mi SSE 20.7 mph - N/A   Mist
2:15 AM 71.6 °F 69.8 °F 94% 29.83 in 4.0 mi SSE 17.3 mph - N/A   Mist
2:35 AM 71.6 °F 69.8 °F 94% 29.84 in 5.0 mi SSE 15.0 mph - N/A   Mist
2:55 AM 71.6 °F 69.8 °F 94% 29.84 in 5.0 mi SSE 13.8 mph - N/A   Mist
3:15 AM 71.6 °F 69.8 °F 94% 29.85 in 5.0 mi SSE 11.5 mph - N/A   Mist
3:35 AM 71.6 °F 69.8 °F 94% 29.85 in 5.0 mi SSE 10.4 mph - N/A   Mist
3:55 AM 71.6 °F 69.8 °F 94% 29.85 in 5.0 mi South 10.4 mph - N/A   Mist
4:15 AM 69.8 °F 69.8 °F 100% 29.86 in 4.0 mi SSW 5.8 mph - N/A   Mist
4:35 AM 71.6 °F 69.8 °F 94% 29.85 in 4.0 mi SW 5.8 mph - N/A   Mist
4:55 AM 69.8 °F 69.8 °F 100% 29.85 in 3.0 mi SW 4.6 mph - N/A   Mist
5:15 AM 71.6 °F 69.8 °F 94% 29.84 in 5.0 mi South 9.2 mph 17.3 mph N/A   Mist
5:35 AM 73.4 °F 69.8 °F 88% 29.84 in 7.0 mi South 10.4 mph - N/A   Unknown
5:55 AM 73.4 °F 69.8 °F 88% 29.85 in 6.0 mi South 12.7 mph - N/A   Mist
6:15 AM 73.4 °F 69.8 °F 88% 29.86 in 7.0 mi South 13.8 mph - N/A   Unknown
6:35 AM 73.4 °F 69.8 °F 88% 29.87 in 7.0 mi SSW 12.7 mph - N/A   Mostly Cloudy
6:55 AM 73.4 °F 69.8 °F 88% 29.88 in 6.0 mi SSW 12.7 mph - N/A   Mostly Cloudy
7:15 AM 73.4 °F 69.8 °F 88% 29.89 in 4.0 mi SW 12.7 mph - N/A   Scattered Clouds
7:35 AM 71.6 °F 69.8 °F 94% 29.90 in 3.0 mi WSW 11.5 mph - N/A   Scattered Clouds
7:55 AM 71.6 °F 69.8 °F 94% 29.92 in 2.5 mi West 13.8 mph - N/A   Scattered Clouds
8:15 AM 69.8 °F 68.0 °F 94% 29.93 in 2.5 mi WNW 13.8 mph - N/A   Partly Cloudy
8:35 AM 69.8 °F 69.8 °F 100% 29.94 in 2.5 mi WNW 12.7 mph - N/A   Clear
8:55 AM 69.8 °F 69.8 °F 100% 29.94 in 3.0 mi WNW 11.5 mph - N/A   Clear
9:15 AM 71.6 °F 69.8 °F 94% 29.94 in 4.0 mi West 5.8 mph - N/A   Clear
9:35 AM 71.6 °F 69.8 °F 94% 29.94 in 4.0 mi Calm Calm - N/A   Clear
9:55 AM 73.4 °F 69.8 °F 88% 29.94 in 5.0 mi Calm Calm - N/A   Clear
10:15 AM 73.4 °F 69.8 °F 88% 29.95 in 6.0 mi Calm Calm - N/A   Haze
10:35 AM 75.2 °F 69.8 °F 83% 29.95 in 6.0 mi SE 4.6 mph - N/A   Haze
10:55 AM 77.0 °F 69.8 °F 78% 29.96 in 4.0 mi SE 6.9 mph - N/A   Haze
11:15 AM 75.2 °F 69.8 °F 83% 29.96 in 6.0 mi ESE 6.9 mph - N/A   Haze
11:35 AM 75.2 °F 69.8 °F 83% 29.95 in 5.0 mi SE 10.4 mph - N/A   Haze
11:55 AM 77.0 °F 69.8 °F 78% 29.95 in 5.0 mi SE 8.1 mph - N/A   Haze
12:15 PM 78.8 °F 69.8 °F 74% 29.94 in 6.0 mi SSE 5.8 mph - N/A   Haze
12:35 PM 78.8 °F 69.8 °F 74% 29.95 in 7.0 mi ESE 4.6 mph - N/A   Clear
12:55 PM 73.4 °F 69.8 °F 88% 29.95 in 5.0 mi North 12.7 mph 19.6 mph N/A   Haze
1:15 PM 73.4 °F 69.8 °F 88% 29.96 in 4.0 mi North 12.7 mph - N/A   Clear
1:35 PM 69.8 °F 68.0 °F 94% 29.95 in 6.0 mi NNE 16.1 mph - N/A   Clear
1:55 PM 71.6 °F 68.0 °F 88% 29.94 in 6.0 mi NE 16.1 mph - N/A   Haze
2:15 PM 73.4 °F 68.0 °F 83% 29.94 in 5.0 mi NE 15.0 mph - N/A   Haze
2:35 PM 73.4 °F 68.0 °F 83% 29.94 in 6.0 mi ENE 12.7 mph - N/A   Haze
3:15 PM 73.4 °F 68.0 °F 83% 29.93 in 5.0 mi ENE 11.5 mph - N/A   Haze
3:35 PM 75.2 °F 68.0 °F 78% 29.92 in - ENE 10.4 mph - N/A   Clear
3:55 PM 75.2 °F 69.8 °F 83% 29.91 in 4.0 mi NE 8.1 mph - N/A   Haze
4:15 PM 71.6 °F 68.0 °F 88% 29.91 in 3.0 mi North 10.4 mph - N/A   Clear
4:35 PM 69.8 °F 68.0 °F 94% 29.91 in 5.0 mi North 15.0 mph - N/A   Clear
4:55 PM 69.8 °F 66.2 °F 88% 29.91 in 5.0 mi North 17.3 mph - N/A   Partly Cloudy
5:15 PM 69.8 °F 68.0 °F 94% 29.91 in 3.0 mi North 19.6 mph - N/A   Partly Cloudy
5:35 PM 68.0 °F 66.2 °F 94% 29.91 in 3.0 mi North 19.6 mph - N/A   Partly Cloudy
5:55 PM 68.0 °F 66.2 °F 94% 29.92 in 2.5 mi NNE 17.3 mph - N/A   Scattered Clouds
6:15 PM 68.0 °F 66.2 °F 94% 29.92 in 3.0 mi NNE 17.3 mph - N/A   Scattered Clouds
6:35 PM 68.0 °F 66.2 °F 94% 29.93 in 3.0 mi NNE 17.3 mph - N/A   Mostly Cloudy
6:55 PM 68.0 °F 66.2 °F 94% 29.93 in 3.0 mi NE 17.3 mph - N/A   Mostly Cloudy
7:15 PM 68.0 °F 66.2 °F 94% 29.93 in 3.0 mi NE 13.8 mph - N/A   Mostly Cloudy
7:35 PM 69.8 °F 66.2 °F 88% 29.93 in 4.0 mi NE 15.0 mph - N/A   Mist
7:55 PM 69.8 °F 66.2 °F 88% 29.93 in 3.0 mi NE 16.1 mph - N/A   Mist
8:15 PM 69.8 °F 68.0 °F 94% 29.94 in 5.0 mi NE 16.1 mph - N/A   Mist
8:35 PM 69.8 °F 68.0 °F 94% 29.95 in 4.0 mi NE 15.0 mph - N/A   Mist
8:55 PM 69.8 °F 68.0 °F 94% 29.95 in 5.0 mi NE 13.8 mph - N/A   Mostly Cloudy
9:15 PM 69.8 °F 68.0 °F 94% 29.96 in 4.0 mi NE 16.1 mph - N/A   Mist
9:35 PM 69.8 °F 68.0 °F 94% 29.96 in 5.0 mi NE 17.3 mph - N/A   Mist
9:55 PM 69.8 °F 68.0 °F 94% 29.96 in 6.0 mi NNE 17.3 mph - N/A   Mostly Cloudy
10:15 PM 69.8 °F 66.2 °F 88% 29.97 in 8.0 mi NNE 17.3 mph - N/A   Mostly Cloudy
10:35 PM 69.8 °F 66.2 °F 88% 29.97 in 8.0 mi NNE 17.3 mph - N/A   Overcast
10:55 PM 69.8 °F 66.2 °F 88% 29.97 in 8.0 mi NNE 17.3 mph - N/A   Overcast
11:15 PM 69.8 °F 64.4 °F 83% 29.96 in 10.0 mi NNE 18.4 mph - N/A   Scattered Clouds
11:35 PM 69.8 °F 64.4 °F 83% 29.96 in 10.0 mi NNE 18.4 mph - N/A   Partly Cloudy
11:55 PM 69.8 °F 66.2 °F 88% 29.96 in 10.0 mi NNE 16.1 mph - N/A   Mostly Cloudy